Volver al catálogo

STARLINK-36652

ActivoComunicacionesVLEO
NORAD 67839·PAYLOAD·🇺🇸 United States

Lanzado Feb 16, 2026 desde Vandenberg Space Force Base

Loading…

Próximos Pases (próximas 24 horas)

TLE

ActualizadoSource: CelesTrak SupGP

Época: Sep 14, 2026, 20:57 UTC

1 67839C 26033U   26257.87340278  .00006769  00000+0  24517-3 0  2574
2 67839  43.0027 278.7282 0001765 273.8046 182.3290 15.27576385    11

Sigue STARLINK-36652 en tiempo real con AllMySat

Download on the App Store